Weather History for Glendale Luke AFB, AZ

Change the Weather History Date:

Tuesday, January 15, 2013

  Actual Average Record
Temperature  
Mean Temperature 38 °F -  
Max Temperature 50 °F 69 °F - (-1)
Min Temperature 27 °F 38 °F - (-1)
Degree Days  
Heating Degree Days 26    
Moisture  
Dew Point 3 °F    
Average Humidity 25    
Maximum Humidity 49    
Minimum Humidity 11    
Precipitation  
Precipitation 0.00 in - - ()
Sea Level Pressure  
Sea Level Pressure 30.37 in    
Wind  
Wind Speed 6 mph (NNW)    
Max Wind Speed 12 mph    
Max Gust Speed -    
Visibility 10 miles    
Events Rain    
Averages and records for this station are not official NWS values.
T = Trace of Precipitation, MM = Missing Value Source: NWS Daily Summary

Daily Weather History Graph

Daily Weather History Graph

Search for Another Location

Airport:

Trip Planner

Search our weather history database for the weather conditions in past years. The results will help you decide how hot, cold, wet, or windy it might be!

Date:

Astronomy

Jan. 15, 2013 Rise Set
Actual Time 7:33 AM MST 5:44 PM MST
Civil Twilight 7:06 AM MST 6:11 PM MST
Nautical Twilight 6:36 AM MST 6:42 PM MST
Astronomical Twilight 6:06 AM MST 7:12 PM MST
Moon 9:56 AM MST (1/15) 10:21 PM MST (1/15)
Length of Visible Light 11h 05m
Length of Day
10h 11m
Waxing Crescent, 20% of the Moon is Illuminated
Jan 15
Waxing Crescent
Jan 18
First Quarter
Jan 26
Full
Feb 3
Last Quarter
Feb 10
New

Hourly Weather History & Observations

Time (MST) Temp. Windchill Dew Point Humidity Pressure Visibility Wind Dir Wind Speed Gust Speed Precip Events Conditions
12:58 AM 30.2 °F 24.3 °F 12.9 °F 49% 30.30 in 10.0 mi North 5.8 mph - N/A   Clear
1:58 AM 35.6 °F 27.5 °F -0.4 °F 22% 30.31 in 10.0 mi NNE 11.5 mph - N/A   Clear
2:58 AM 30.7 °F 22.6 °F 3.9 °F 32% 30.33 in 10.0 mi NNW 9.2 mph - N/A   Clear
3:58 AM 28.6 °F 20.7 °F 4.1 °F 35% 30.34 in 10.0 mi NNW 8.1 mph - N/A   Clear
4:58 AM 30.0 °F 21.7 °F 3.2 °F 32% 30.34 in 10.0 mi North 9.2 mph - N/A   Clear
5:58 AM 29.1 °F - 5.4 °F 37% 30.35 in 10.0 mi NNW 2.3 mph - N/A   Clear
6:58 AM 28.4 °F 19.7 °F 5.4 °F 38% 30.38 in 10.0 mi North 9.2 mph - N/A   Clear
7:58 AM 27.9 °F 24.0 °F 4.1 °F 36% 30.41 in 10.0 mi NNW 3.5 mph - N/A   Clear
8:58 AM 32.7 °F 25.7 °F 4.1 °F 30% 30.43 in 10.0 mi NNW 8.1 mph - N/A   Clear
9:58 AM 39.4 °F 35.2 °F 0.1 °F 19% 30.45 in 10.0 mi NNE 5.8 mph - N/A   Clear
10:58 AM 43.0 °F 37.2 °F -3.1 °F 14% 30.43 in 10.0 mi NNE 10.4 mph - N/A Rain Light Rain
11:58 AM 45.0 °F 39.3 °F -3.1 °F 13% 30.42 in 10.0 mi NNE 11.5 mph - N/A   Clear
12:58 PM 46.9 °F - -3.1 °F 12% 30.38 in 10.0 mi North 8.1 mph - N/A   Clear
1:58 PM 48.2 °F - -4.0 °F 11% 30.35 in 10.0 mi Calm Calm - N/A   Clear
2:58 PM 49.6 °F - -2.7 °F 11% 30.34 in 10.0 mi Variable 2.3 mph - N/A   Clear
3:58 PM 49.6 °F - -2.7 °F 11% 30.34 in 10.0 mi WNW 1.2 mph - N/A   Clear
4:58 PM 50.0 °F - -0.8 °F 12% 30.36 in 10.0 mi WSW 4.6 mph - N/A   Clear
5:58 PM 47.8 °F - -0.8 °F 13% 30.36 in 10.0 mi South 3.5 mph - N/A   Clear
6:58 PM 44.4 °F - 1.6 °F 17% 30.37 in 10.0 mi SW 2.3 mph - N/A   Clear
7:58 PM 41.5 °F - 7.3 °F 24% 30.38 in 10.0 mi Calm Calm - N/A   Clear
8:58 PM 41.0 °F 38.0 °F 7.5 °F 25% 30.37 in 10.0 mi North 4.6 mph - N/A   Clear
9:58 PM 40.3 °F 35.5 °F 9.0 °F 28% 30.37 in 10.0 mi NW 6.9 mph - N/A   Clear
10:58 PM 37.6 °F 35.1 °F 10.4 °F 33% 30.38 in 10.0 mi NW 3.5 mph - N/A   Clear
11:58 PM 35.6 °F 30.7 °F 12.6 °F 39% 30.39 in 10.0 mi NNW 5.8 mph - N/A   Clear